Wind_Speed
21 21 22 21 21 21 21 21 21 20 20 20 20 19 19 18 18 17 16 16 16 15 13 12 13 13 11 11 12 14 15 15 14 12 12 14 16 18 17 17 17 15 15 14 12 12 13 13 12 15 19 21 21 19 17 15 15 14 15 15 13 14 16 15 14 14 13 12 11 10 8 9 11 10 9 8 7 6 5 5 5 5 6 6 7 7 6 3
23 23 24 24 24 24 24 23 23 23 23 23 22 22 21 21 20 20 19 17 17 17 16 14 13 14 13 12 12 13 15 17 16 12 13 15 15 16 17 18 19 19 17 16 15 16 16 16 16 16 18 22 23 22 20 17 16 16 16 16 14 15 16 16 15 14 13 13 12 11 10 11 11 10 9 8 7 6 5 5 5 6 6 7 8 8 8 5
24 24 24 24 24 24 24 24 24 24 24 24 24 24 23 23 23 22 22 20 19 19 18 16 15 15 15 14 13 13 15 17 17 14 15 15 13 15 15 16 19 20 20 19 18 19 19 18 18 17 18 21 23 24 24 21 18 17 16 17 16 16 16 15 15 15 14 13 12 12 13 13 13 12 10 8 6 6 5 5 5 6 6 7 8 8 8 7
23 24 24 24 24 24 24 24 24 24 24 25 25 25 24 24 24 24 24 23 22 21 20 19 18 16 16 16 15 14 15 16 17 15 16 17 15 15 15 16 19 20 20 19 18 19 20 19 17 15 15 17 20 24 25 25 22 19 18 19 18 16 16 15 16 16 15 14 14 14 13 13 14 13 11 8 6 5 5 4 5 6 6 6 6 7 8 8
23 23 23 24 24 24 24 24 24 24 24 24 25 25 25 25 25 25 25 24 24 23 22 22 21 19 18 18 17 16 16 15 16 17 19 19 17 17 16 17 19 18 18 19 19 19 20 20 18 15 14 13 14 19 25 26 25 23 21 19 18 17 17 16 15 15 15 15 14 13 12 13 14 13 12 9 7 6 5 5 5 6 6 6 6 6 7 8
23 22 22 23 23 23 23 23 24 24 24 24 24 25 25 25 25 25 25 25 25 24 24 24 24 23 21 20 19 18 18 16 17 19 20 20 19 19 18 18 19 18 17 18 19 19 18 19 19 16 15 14 13 16 23 26 27 25 23 20 19 19 19 18 15 15 16 14 11 10 12 14 14 13 13 11 9 7 6 6 6 6 6 6 7 6 6 7
21 21 21 21 22 22 22 22 22 23 23 23 23 24 25 25 25 25 25 25 25 25 25 24 25 25 24 23 22 21 20 17 19 20 19 20 21 20 20 20 20 18 17 18 19 19 18 18 18 18 18 16 14 17 21 24 26 27 25 23 22 21 21 20 17 16 17 15 11 11 14 15 14 14 13 11 10 9 8 7 7 6 5 5 7 7 7 7
19 19 19 19 20 20 20 20 20 21 21 21 21 22 23 24 24 25 25 25 25 25 25 25 25 26 26 25 24 24 24 21 22 21 19 20 21 21 22 22 22 20 18 19 21 22 22 20 20 21 20 18 17 19 21 23 25 26 27 25 23 23 22 21 20 19 18 16 13 15 16 15 14 14 14 12 11 10 9 8 8 7 6 6 7 8 9 8
18 19 19 19 19 19 19 19 19 19 20 20 19 20 21 22 23 23 24 24 25 25 25 26 26 26 26 27 27 27 27 25 24 23 21 20 20 22 23 23 23 22 21 21 21 22 23 22 22 23 23 23 22 22 23 24 25 27 28 27 25 24 23 23 21 20 18 16 16 17 17 15 14 14 14 13 13 12 10 10 9 8 6 7 8 8 8 8
19 19 20 20 20 20 21 20 21 21 21 20 20 20 20 21 21 22 22 23 22 23 24 25 26 26 27 28 28 29 29 28 26 25 23 20 20 22 24 24 25 24 23 22 21 21 24 26 27 28 28 29 27 25 25 24 26 29 29 27 26 26 24 23 22 21 19 17 17 18 16 14 15 15 14 14 15 13 12 12 11 9 8 8 8 8 8 7
21 21 22 23 23 23 23 23 24 24 24 23 23 23 22 22 22 23 23 22 21 21 23 24 25 26 27 28 28 29 30 29 29 28 26 23 22 23 24 26 26 26 25 24 23 24 27 30 31 31 31 30 29 27 26 25 28 31 29 26 27 27 25 23 22 22 21 20 19 18 16 13 15 15 13 14 15 13 12 12 11 9 9 9 9 8 8 8
24 24 24 25 25 25 26 26 26 26 26 26 26 26 26 26 26 26 25 23 22 22 22 23 24 26 27 28 27 28 30 31 31 30 29 26 25 24 25 26 27 28 27 27 27 28 29 29 31 32 31 31 31 29 28 29 31 32 30 27 27 27 25 24 23 23 22 22 21 19 16 13 17 16 13 14 14 12 11 11 10 9 9 9 9 9 8 8
27 27 27 27 28 28 28 28 29 29 29 29 29 29 29 29 29 29 28 27 26 25 24 23 24 25 27 28 27 28 30 31 31 31 31 30 28 27 27 27 28 28 29 29 29 30 29 29 31 33 33 33 33 31 29 31 33 33 31 28 27 27 26 25 25 25 24 23 22 20 18 16 19 17 13 15 14 12 12 12 10 10 9 9 8 9 9 9
29 29 29 29 29 29 30 30 30 30 30 30 31 31 31 31 31 31 30 29 29 29 28 26 26 27 27 28 28 28 29 30 31 31 32 32 31 30 30 29 29 29 30 30 30 30 30 29 31 32 33 33 34 32 30 32 34 34 33 29 27 27 26 26 26 25 25 25 23 21 20 20 21 19 15 17 16 15 14 13 12 11 10 9 8 9 9 8
31 30 30 30 30 30 30 30 31 31 31 32 32 32 33 33 33 32 31 31 30 31 30 30 30 30 29 28 29 30 29 29 30 31 32 33 33 33 33 32 31 30 31 32 32 32 32 31 31 31 31 33 34 33 32 33 34 35 35 30 27 25 25 26 27 25 25 26 25 23 22 22 22 19 16 18 18 17 15 14 13 12 11 9 8 8 7 7
32 32 32 32 32 31 32 32 33 33 34 34 34 35 35 36 36 35 33 32 32 32 31 32 33 33 33 31 30 31 31 30 30 31 32 33 35 35 35 35 34 33 32 33 33 33 34 33 32 31 32 34 35 34 33 34 35 37 36 30 26 25 25 27 27 25 25 26 25 23 22 21 21 20 17 18 20 18 16 15 14 13 12 9 8 8 7 7
34 34 34 34 34 35 35 36 36 37 37 37 38 38 39 39 40 39 37 35 35 34 33 34 34 34 35 35 33 34 33 32 32 33 32 33 34 36 37 38 37 36 35 34 34 34 35 34 33 33 33 33 34 35 35 34 35 36 34 29 26 26 26 27 26 25 26 26 25 23 22 20 20 20 19 20 21 19 17 16 15 14 12 10 9 8 8 8
36 36 36 36 37 37 38 39 39 39 39 40 40 40 40 41 42 42 40 39 38 38 37 37 36 36 37 37 37 37 37 35 35 35 34 33 34 36 38 40 41 41 39 37 36 35 35 35 35 34 35 34 33 33 33 31 32 31 30 27 26 27 26 26 26 27 27 27 25 24 24 22 20 20 20 22 23 21 20 18 17 15 12 10 10 9 8 8
37 38 39 39 40 40 40 40 40 40 40 41 41 41 41 41 42 43 43 42 41 41 41 40 40 40 39 39 39 40 41 40 38 37 36 36 36 37 38 41 43 44 43 41 38 37 36 35 37 36 33 30 28 28 28 28 29 29 29 28 28 28 27 26 27 28 28 29 27 25 25 25 25 22 21 23 24 23 22 20 17 15 12 10 10 10 9 9
38 39 40 41 41 42 42 42 42 42 42 43 43 42 42 42 43 45 46 45 45 44 44 43 43 43 42 41 41 41 43 44 42 40 39 38 39 39 39 41 43 45 45 43 41 39 38 37 37 32 27 26 26 27 27 28 29 31 32 31 30 30 30 29 29 29 29 31 29 27 28 29 29 25 22 25 26 25 24 20 17 15 13 12 11 11 10 9
40 40 41 41 42 43 43 44 44 43 44 44 44 44 44 44 44 45 47 47 48 47 47 47 46 45 44 44 44 44 45 46 46 44 42 40 41 41 41 41 43 45 45 44 44 43 43 40 34 27 27 29 30 29 28 28 29 32 33 33 32 31 30 30 31 30 30 31 31 30 30 30 29 27 25 27 28 26 24 21 18 16 16 15 14 12 11 9
41 41 41 42 42 43 43 44 44 44 44 44 44 44 44 45 44 44 45 46 48 50 50 50 50 49 47 47 46 46 47 48 48 48 45 43 43 44 44 43 43 44 45 47 48 47 46 41 30 26 30 33 32 32 31 29 29 32 34 34 33 31 29 31 32 30 31 31 31 32 32 31 30 30 28 28 28 28 26 24 22 20 19 18 16 13 10 9
41 41 41 41 41 41 42 42 43 43 44 43 43 42 42 43 43 44 44 43 46 49 50 51 51 52 51 49 49 48 49 50 50 50 48 46 45 46 45 45 44 44 46 49 50 50 47 39 28 28 34 35 35 35 33 31 31 33 34 34 33 31 29 31 33 33 33 32 31 32 33 33 33 33 31 29 29 31 30 29 28 26 23 22 21 18 14 13
41 40 40 40 40 40 39 39 40 41 41 41 40 39 38 38 38 39 40 41 43 44 46 48 50 50 51 50 50 50 50 51 51 51 50 49 48 47 47 46 46 46 47 48 49 50 48 39 32 35 38 37 38 37 35 34 33 34 35 33 32 30 30 31 33 35 35 33 31 32 34 35 36 35 33 30 30 32 32 32 31 28 26 26 26 23 20 17
39 38 38 38 38 37 37 37 36 36 37 36 35 33 33 32 32 32 34 35 36 37 38 42 45 45 47 48 48 49 50 51 52 52 51 50 49 49 48 48 48 49 48 48 49 50 48 42 38 42 42 39 39 39 37 35 34 35 35 32 30 30 32 32 34 36 36 36 33 33 36 36 36 36 35 33 32 32 32 32 32 28 27 27 25 23 20 18
37 36 36 36 36 35 34 32 30 30 31 30 29 29 29 28 27 27 29 31 31 32 32 35 38 38 40 41 41 44 47 48 50 51 51 50 49 49 50 50 50 51 50 49 50 50 48 43 42 46 45 42 42 41 40 37 36 36 33 29 30 32 34 34 34 37 39 39 36 36 38 36 36 37 37 36 34 33 33 34 32 29 28 25 23 22 21 18
34 34 34 34 34 32 30 27 24 23 24 24 25 27 28 28 28 27 30 31 30 30 29 30 31 32 33 32 31 36 42 44 47 49 49 49 49 49 49 50 51 52 52 52 53 51 47 44 46 49 48 45 44 43 41 38 37 34 29 29 33 35 36 36 36 39 40 39 38 39 40 38 38 39 39 39 38 36 36 36 33 30 27 25 23 23 22 20
32 32 32 32 31 31 27 23 20 20 21 22 24 27 29 29 30 29 31 32 30 29 29 30 30 30 30 28 26 28 33 38 42 44 45 46 47 48 48 50 51 52 54 55 55 52 47 44 47 51 51 47 44 41 39 39 38 33 29 34 36 35 37 38 39 41 39 41 43 42 43 42 40 39 40 42 42 39 38 36 34 31 27 25 25 25 24 22
31 30 30 30 30 30 27 22 20 21 23 24 26 29 30 30 30 30 31 32 30 28 29 30 30 30 30 29 28 28 29 32 36 38 41 42 44 46 47 50 52 53 55 56 57 54 48 46 48 51 53 50 44 41 40 42 41 34 33 38 36 35 39 40 43 43 41 46 48 44 44 45 40 38 41 44 43 39 36 36 35 32 29 27 27 27 26 24
30 29 29 29 29 30 28 23 21 22 25 27 28 30 31 30 31 31 30 30 28 26 26 27 28 28 29 30 31 31 31 31 33 34 36 37 39 43 46 49 52 53 55 57 58 57 52 48 49 51 53 52 47 44 44 44 42 37 38 40 38 38 41 43 45 45 46 53 52 45 45 47 41 40 44 44 39 36 36 37 36 33 31 29 28 28 27 26
30 29 28 28 29 29 27 25 24 25 27 29 31 31 32 31 30 31 30 29 28 27 25 24 24 24 25 27 30 32 32 33 33 33 35 35 36 39 43 47 51 53 55 57 58 58 55 51 51 52 53 54 52 50 49 46 44 43 44 44 41 41 42 45 48 50 54 58 53 46 45 49 43 40 43 42 37 38 38 37 36 34 32 30 29 29 28 27
30 29 28 27 27 25 23 25 26 28 30 33 34 33 32 32 31 31 31 30 30 27 24 24 24 24 25 26 27 30 31 33 34 34 35 36 35 36 39 43 48 52 55 57 58 59 57 54 53 54 54 55 55 54 52 50 48 48 50 49 46 45 46 49 51 55 59 59 53 47 47 53 45 37 41 42 38 40 39 37 38 35 33 32 32 31 30 29
30 29 27 25 23 22 23 25 28 30 33 35 35 34 33 33 32 31 31 31 31 28 26 26 26 26 26 26 27 27 29 32 34 35 35 36 36 36 36 39 43 48 53 55 57 59 58 57 56 57 56 57 57 56 55 54 52 52 54 53 51 49 50 52 54 56 59 58 54 49 49 55 46 36 41 42 38 38 38 38 39 37 35 34 33 33 32 30
30 28 25 22 21 22 25 28 30 32 34 35 35 35 34 34 33 33 33 32 31 29 28 28 28 28 28 28 27 26 27 29 31 34 36 37 38 37 36 37 39 44 49 53 56 59 60 59 59 59 59 58 58 58 57 55 53 53 54 54 52 50 49 50 52 54 57 58 55 51 52 55 46 34 38 40 37 38 38 38 39 38 36 36 35 35 34 32
29 26 23 22 23 25 27 30 32 34 34 35 35 35 35 35 34 34 33 32 31 30 30 30 30 31 31 30 30 29 29 29 30 32 35 38 39 39 38 36 37 40 44 50 54 58 61 60 60 61 60 58 58 59 59 58 56 53 53 55 54 50 47 48 49 50 53 56 56 55 55 55 45 30 33 38 38 38 38 38 39 40 38 38 37 37 35 33
28 25 24 25 27 28 29 31 32 33 34 35 35 35 34 34 33 33 32 32 31 31 31 32 32 33 33 33 33 32 32 32 32 32 34 36 39 41 40 39 38 38 41 46 51 56 60 61 61 62 60 59 59 60 60 59 58 56 56 57 56 50 47 49 50 49 51 54 58 58 55 53 44 29 31 37 38 37 38 39 40 41 40 40 39 37 36 34
27 26 26 28 29 30 31 32 33 33 34 34 34 34 32 32 31 31 31 30 31 31 32 33 34 35 36 35 35 35 35 35 36 36 36 36 38 40 41 42 41 39 40 43 47 52 58 61 62 62 61 60 61 61 60 59 59 58 57 56 55 52 51 52 52 51 52 54 58 57 54 52 45 33 30 35 37 37 37 39 41 42 42 42 40 38 37 35
27 27 28 28 29 30 32 32 33 33 32 32 32 31 30 30 29 29 28 28 29 30 32 34 35 36 37 37 36 36 37 39 39 40 41 40 40 40 40 43 43 43 42 41 44 49 55 60 62 62 61 60 61 61 60 60 59 58 56 56 55 55 55 55 55 55 54 55 58 56 54 51 46 36 30 32 36 37 36 38 41 43 44 43 40 39 38 36
27 28 28 28 30 32 33 33 32 31 30 30 29 29 28 28 28 27 27 27 28 30 32 34 35 36 37 38 39 39 41 42 43 44 45 45 45 43 42 43 44 45 45 43 43 46 51 58 61 62 62 61 61 62 61 60 59 57 57 58 58 57 56 54 55 55 54 56 56 54 53 50 44 37 30 29 32 35 37 38 40 43 44 42 40 38 38 38
28 28 28 30 31 32 32 31 30 29 28 27 27 26 26 26 26 26 27 28 30 32 33 35 36 38 40 41 42 42 43 44 45 45 46 47 48 47 46 45 45 46 47 46 44 44 48 55 60 61 62 62 62 63 62 60 59 59 59 60 60 59 58 56 56 56 55 56 55 53 52 47 41 38 33 30 30 34 37 37 38 42 43 41 39 38 37 37
27 28 29 31 32 32 31 29 28 27 26 25 24 24 24 24 25 26 28 30 32 34 36 38 39 40 42 42 42 42 42 43 44 45 47 48 49 49 49 48 47 47 48 48 47 45 47 53 58 60 61 63 63 62 61 60 60 61 62 63 62 60 60 59 59 59 58 58 56 54 53 45 38 38 37 32 31 32 35 35 36 40 42 41 39 37 36 35
27 28 30 31 31 30 30 28 27 26 25 24 24 23 23 23 25 27 29 32 35 37 38 39 40 40 40 41 41 41 42 43 44 45 47 49 50 51 51 50 49 48 48 50 50 48 47 50 56 58 59 62 63 62 61 61 60 61 62 64 63 62 63 62 62 61 59 59 58 57 56 46 37 37 37 33 31 31 33 35 35 38 41 40 39 37 36 35
27 29 31 31 30 29 29 27 26 25 24 24 23 23 23 24 25 28 31 34 36 37 38 38 39 39 39 40 41 41 40 41 42 43 45 48 50 51 50 49 50 49 49 50 51 50 49 49 53 56 56 58 60 61 62 60 60 61 63 64 64 64 64 63 64 62 60 60 58 57 57 46 36 35 36 33 31 32 35 36 35 38 40 39 39 39 38 36
28 30 31 30 28 27 27 26 26 25 24 23 23 22 23 24 26 28 31 33 35 36 37 37 38 38 38 38 37 35 33 32 33 34 36 38 41 43 44 45 48 49 49 50 51 52 51 50 51 53 54 54 56 59 62 61 60 62 63 65 65 66 65 63 64 64 62 62 58 58 58 45 34 34 35 33 32 34 37 38 37 37 39 40 40 39 38 36
29 30 30 29 27 25 25 25 25 24 24 23 22 22 23 24 26 28 30 32 33 34 35 36 36 36 35 33 29 26 24 23 24 25 27 28 29 32 34 37 42 46 48 50 51 52 52 52 51 52 53 54 56 60 64 64 63 63 64 65 66 67 66 64 64 64 64 63 58 58 57 42 33 34 33 33 35 35 37 39 39 38 38 38 39 39 37 36
29 30 29 28 26 25 24 24 24 23 23 22 22 23 24 25 27 28 30 33 34 35 36 36 34 32 29 24 21 19 20 19 20 21 22 23 23 24 25 29 34 40 44 48 51 51 53 54 53 53 54 54 56 61 65 65 64 64 65 66 66 67 67 67 66 64 64 63 60 59 53 39 34 34 33 34 37 36 37 39 40 41 40 40 40 39 39 39
29 29 28 28 27 27 27 26 24 22 21 22 23 23 24 26 28 30 32 35 37 37 37 34 30 26 21 18 17 18 18 18 18 19 20 20 20 20 20 23 28 34 40 45 49 52 54 55 53 54 54 53 54 60 64 65 64 65 65 66 67 68 68 68 67 66 64 62 62 60 49 37 35 35 34 36 39 38 38 39 41 42 43 43 43 43 43 42
29 28 28 27 27 28 28 27 26 24 23 23 24 25 25 27 29 31 33 35 37 36 33 28 23 18 15 15 15 16 17 17 18 18 18 18 18 18 18 20 23 28 34 41 47 51 54 54 54 54 54 53 53 58 64 65 65 65 65 66 67 68 69 70 68 66 64 62 63 59 46 38 36 33 34 38 40 40 39 39 40 42 43 45 46 47 47 47
28 28 27 27 28 28 28 28 27 26 26 26 26 27 27 28 30 32 33 35 35 32 27 21 17 13 12 13 15 16 16 16 16 17 17 18 17 17 18 19 21 25 30 36 43 49 53 54 54 56 55 54 53 56 63 66 65 65 65 64 66 68 70 70 69 67 65 65 63 55 45 41 36 31 35 41 42 41 40 40 42 43 45 47 49 49 50 51
28 27 28 28 28 28 28 28 27 27 27 28 28 29 30 30 31 33 33 33 32 27 21 15 12 12 12 12 14 15 16 15 14 15 17 18 18 18 19 19 20 23 27 33 40 47 51 53 54 56 56 54 53 54 60 65 66 65 64 64 66 68 69 70 69 68 67 66 62 52 45 43 36 33 38 42 41 41 41 41 44 45 47 49 50 51 52 52
27 27 27 28 29 28 28 28 28 28 29 29 30 30 31 31 31 32 33 32 27 21 16 12 10 11 12 12 13 14 14 15 16 17 19 21 21 22 22 21 21 22 24 30 37 43 49 52 53 56 56 53 52 53 57 63 66 65 64 64 65 68 69 69 69 69 67 65 61 52 46 43 37 35 40 41 40 41 41 42 45 47 48 49 49 50 51 51
26 26 27 28 28 28 29 29 29 29 30 31 31 31 31 30 29 30 32 31 24 15 11 10 9 11 12 12 11 12 13 14 16 18 20 22 23 23 23 22 22 22 23 27 33 40 47 51 52 55 56 53 51 52 55 60 66 67 65 64 65 67 69 69 70 70 68 65 61 53 46 45 41 37 39 39 39 40 41 42 44 46 47 46 47 48 47 45
Wind_Direction
285 285 285 285 285 285 285 285 285 285 285 284 285 285 286 287 288 289 290 291 290 288 284 282 282 280 271 257 249 249 250 248 240 229 224 224 224 226 227 224 223 227 232 234 226 219 224 223 219 218 220 222 219 217 210 196 185 181 181 181 181 180 177 178 176 170 170 172 175 176 177 179 178 182 192 203 214 218 207 192 195 196 181 185 191 176 160 156
285 285 285 285 284 284 284 284 283 283 282 282 282 281 282 282 282 283 283 284 286 287 287 283 280 279 277 269 256 248 248 249 245 234 231 229 225 227 227 225 224 222 221 223 220 214 216 218 217 216 216 220 220 218 216 208 196 189 192 189 185 185 184 184 184 182 180 179 181 186 185 180 180 188 202 218 230 232 221 204 199 210 202 193 200 194 168 148
286 286 286 285 285 285 284 284 283 283 282 281 280 280 279 279 279 279 279 279 279 281 283 282 279 277 276 273 265 254 248 248 247 238 238 234 226 228 226 226 227 225 223 221 217 212 214 217 216 213 213 217 217 217 216 214 206 198 200 199 194 191 191 194 195 192 185 180 184 192 190 184 190 197 203 215 227 221 213 212 205 210 213 203 203 203 184 156
287 287 286 286 285 285 284 284 283 283 282 281 281 280 279 278 277 276 276 275 274 274 276 277 276 275 274 272 268 262 253 249 248 240 241 239 229 228 224 223 226 226 228 229 224 217 218 223 222 219 219 219 216 214 215 216 212 205 203 206 203 195 192 197 202 197 183 178 182 185 189 194 201 200 200 205 210 211 205 210 215 214 212 209 206 207 200 169
288 287 287 286 285 285 284 283 283 282 282 281 280 280 279 278 277 276 275 274 273 271 271 271 272 271 271 271 269 265 259 254 251 242 238 239 233 230 227 226 228 225 226 229 230 225 222 225 228 231 233 234 226 216 216 217 215 211 208 208 208 201 195 196 204 200 181 180 186 184 193 207 212 205 199 199 195 196 194 196 209 216 209 208 209 203 210 186
290 289 288 288 286 285 284 284 283 282 281 281 281 280 279 278 277 276 275 274 273 271 268 268 268 268 267 267 268 267 262 256 252 244 237 238 236 233 230 230 233 228 221 222 228 232 229 224 224 230 236 239 233 219 218 219 217 216 213 207 208 207 202 199 207 204 184 182 188 194 206 213 219 213 202 198 189 184 184 183 189 208 216 219 217 197 207 203
293 292 292 291 289 288 287 286 285 284 282 282 282 281 280 278 277 276 275 274 273 272 270 267 265 265 264 263 264 264 262 256 253 248 241 239 238 236 233 230 233 231 224 218 219 227 231 228 222 221 227 230 224 218 222 224 220 218 216 209 206 207 206 202 207 207 192 183 183 201 217 219 221 215 204 197 186 181 177 174 178 199 220 222 220 197 194 203
297 297 296 295 293 292 290 290 288 287 285 284 284 284 283 281 279 277 276 274 273 272 271 269 266 264 262 261 260 261 261 257 254 253 246 241 239 238 235 232 232 230 225 218 214 216 219 220 219 216 219 221 217 215 219 224 224 223 220 213 207 206 207 204 204 207 199 189 188 204 217 221 225 216 206 197 183 182 178 175 180 192 214 215 213 202 190 188
301 301 300 299 298 296 294 293 291 290 288 286 286 286 285 284 283 281 279 277 275 274 272 270 267 264 262 259 258 257 257 255 255 255 249 244 241 239 237 235 233 230 225 221 218 215 214 214 216 214 213 215 213 210 214 218 221 226 225 218 211 207 206 205 204 207 202 196 198 206 211 215 227 220 207 199 185 182 183 183 184 189 210 216 210 204 196 191
302 301 300 299 298 297 296 295 293 291 290 288 287 286 284 284 283 283 281 279 279 278 276 273 269 266 263 260 257 255 256 256 256 256 253 247 243 241 239 236 235 231 227 224 221 218 215 213 214 213 212 212 210 206 209 212 215 224 227 220 216 211 208 207 206 207 202 199 202 208 207 208 225 223 211 204 190 184 186 184 185 189 203 209 204 200 198 199
300 299 298 297 295 295 294 293 291 290 289 288 287 285 283 282 281 281 280 279 280 280 279 276 273 269 265 261 259 257 256 255 254 254 253 250 244 242 240 238 236 233 229 225 220 217 216 214 213 214 214 214 213 207 204 208 213 220 225 221 218 215 210 208 208 208 204 201 204 207 205 207 225 225 213 209 196 189 190 185 185 189 197 201 201 202 198 198
300 299 298 296 295 294 293 292 290 289 288 287 285 284 282 281 279 278 277 276 277 277 277 277 276 274 270 264 260 258 256 254 252 251 251 249 246 243 242 240 238 236 233 228 224 221 219 218 217 216 215 216 217 211 204 206 211 216 222 221 217 214 209 207 209 210 208 206 206 206 201 204 224 225 215 212 202 192 189 186 189 188 194 200 202 209 204 200
300 299 298 297 296 295 294 293 291 290 289 287 286 284 282 280 278 276 275 274 274 273 273 274 275 274 272 269 264 260 258 255 253 251 250 249 247 245 244 242 240 238 236 233 231 229 225 221 221 220 217 215 218 216 209 210 212 214 219 220 216 212 206 204 207 209 210 210 210 206 199 203 221 225 216 215 206 191 184 180 187 188 193 204 208 213 212 207
298 297 297 296 295 294 294 293 291 290 289 288 287 286 284 282 279 277 275 274 273 271 269 269 271 271 271 271 268 263 261 258 254 251 249 248 246 245 244 243 241 239 238 236 233 232 230 225 223 224 222 218 219 219 214 215 216 214 218 220 216 211 205 205 208 207 208 212 212 207 204 206 218 224 216 214 209 198 190 180 180 186 193 205 212 214 219 216
296 295 294 293 292 292 291 290 290 289 288 287 287 286 284 283 281 279 277 275 274 271 269 267 266 267 267 268 268 266 264 261 257 252 248 246 244 243 243 243 242 239 238 237 234 232 231 228 226 227 227 225 223 221 218 219 220 219 220 221 219 213 206 210 212 207 208 214 212 207 209 208 212 221 217 215 215 206 197 184 178 183 190 204 215 217 220 216
295 293 292 291 290 289 289 288 288 287 286 285 284 283 282 282 280 279 278 277 276 274 272 270 266 264 264 264 265 265 263 261 259 254 249 245 243 242 241 242 242 241 239 239 237 234 233 230 227 226 227 227 225 224 222 222 224 224 224 223 224 219 211 215 217 212 213 217 212 206 208 206 206 215 215 215 219 213 203 191 181 180 187 201 216 219 215 214
295 293 292 291 289 288 288 287 287 286 286 285 283 282 280 279 278 276 275 276 276 276 275 273 270 266 264 262 261 261 261 259 257 255 251 247 243 241 240 240 240 240 239 238 238 236 235 233 229 227 227 227 225 225 225 226 228 229 228 228 229 226 218 217 219 217 216 217 211 204 204 205 206 213 215 214 215 215 208 197 184 180 183 193 206 212 213 216
296 295 294 293 291 290 288 287 287 286 287 287 285 283 280 279 277 275 273 273 274 275 275 274 272 268 265 262 260 260 259 257 255 254 252 249 245 241 239 238 238 238 237 236 236 236 235 234 231 229 227 227 227 228 229 231 235 236 236 236 236 235 227 221 221 221 219 217 213 205 201 203 207 213 220 219 216 215 211 200 189 180 178 185 196 203 209 217
298 297 296 294 293 291 290 288 287 287 287 288 287 285 282 280 279 277 274 273 274 274 274 273 272 270 267 264 261 259 258 257 254 252 251 249 246 242 239 238 237 238 238 236 236 236 235 234 233 232 231 233 234 235 235 235 237 238 237 236 235 237 234 228 225 224 223 222 217 207 200 202 206 208 219 225 219 215 213 205 192 177 171 180 192 198 206 215
299 298 297 295 294 292 291 290 289 289 289 289 288 287 286 284 283 282 278 276 275 275 275 273 272 270 268 265 262 259 257 256 254 252 250 248 247 244 241 238 237 237 238 238 237 237 236 233 232 233 235 238 238 235 233 231 232 234 234 232 231 232 232 229 227 226 225 225 220 210 201 203 207 204 213 225 221 216 213 208 193 178 172 178 188 197 204 212
300 299 297 296 295 294 293 292 291 291 291 292 291 290 289 287 287 286 283 279 276 276 275 274 272 271 269 266 262 259 256 255 254 252 249 247 246 245 243 240 239 238 238 238 237 236 236 233 229 228 230 231 232 230 228 225 225 229 233 232 231 231 230 228 228 226 226 225 221 215 207 204 209 206 210 222 224 220 214 204 193 184 182 182 186 193 199 206
301 300 298 296 295 294 294 293 293 292 293 293 293 292 291 289 288 288 287 285 280 278 277 275 273 271 268 265 262 259 256 254 253 251 249 246 244 244 243 241 240 239 237 236 236 236 235 233 227 223 226 228 229 227 225 221 219 223 228 229 230 231 230 230 231 229 227 225 222 220 212 205 209 211 209 216 222 222 214 201 193 190 187 186 185 187 192 204
301 300 299 298 297 297 296 296 295 294 294 294 294 294 293 291 290 289 289 288 286 282 279 277 273 270 268 264 261 257 254 252 251 250 248 245 243 242 242 241 240 239 238 237 236 236 236 233 228 226 227 226 226 226 224 219 215 217 221 223 225 228 228 229 232 232 229 226 222 224 217 206 209 211 207 209 217 221 214 202 198 195 189 186 185 184 186 197
302 302 302 301 301 301 301 301 299 298 296 296 296 296 295 294 293 292 290 289 288 285 282 278 275 271 266 263 260 257 253 250 249 248 246 244 242 240 240 239 238 238 239 238 237 236 235 231 224 225 227 225 225 225 224 221 215 215 218 218 219 223 227 227 230 233 233 229 224 226 222 210 207 210 205 205 214 220 217 210 206 200 195 193 189 185 187 194
305 305 306 306 305 305 306 305 304 302 299 298 298 298 298 298 297 296 294 291 290 288 284 280 276 272 267 262 258 256 252 250 248 247 245 243 241 239 237 236 236 236 237 237 237 236 233 227 221 223 224 223 224 224 223 222 217 216 217 215 213 218 223 224 228 231 233 232 226 227 227 214 206 208 204 203 210 217 220 218 214 206 202 202 193 186 189 195
308 308 309 309 309 309 309 307 305 303 301 300 300 300 299 299 299 298 295 293 291 290 287 282 278 275 271 265 259 254 252 250 248 246 245 243 240 238 236 234 233 233 234 235 236 236 232 225 221 224 224 221 221 221 220 221 218 216 216 215 213 214 218 220 224 228 230 231 227 228 229 218 207 206 203 202 205 212 219 221 216 209 208 206 195 187 191 195
310 310 310 310 311 312 310 306 302 300 301 302 302 301 300 300 299 297 294 292 290 288 286 283 281 278 273 270 265 257 252 250 247 246 246 243 240 237 235 233 232 231 231 231 233 234 231 225 221 224 224 222 221 220 218 220 219 215 212 217 215 212 214 216 220 226 229 230 228 228 230 222 210 206 203 202 202 206 215 220 217 212 210 206 196 189 191 194
311 310 311 311 312 311 307 300 294 294 297 300 301 302 302 300 298 296 294 291 289 286 283 281 280 279 277 275 272 264 257 252 248 246 245 243 241 237 234 232 230 229 228 229 231 232 229 225 223 224 225 223 222 221 219 220 219 213 209 217 218 212 212 213 217 223 226 228 227 226 229 226 213 205 205 204 202 203 209 216 218 213 209 203 196 192 192 193
310 309 309 310 311 308 302 293 288 292 297 299 302 302 301 298 296 294 292 290 289 286 283 281 280 280 280 278 274 269 263 256 252 249 245 242 241 237 232 231 229 227 226 227 229 229 224 222 223 223 224 222 220 220 219 219 217 210 209 217 218 215 212 212 215 219 222 227 226 223 227 229 215 203 208 208 203 203 205 213 218 214 207 201 195 194 194 195
310 308 307 306 306 304 299 291 289 294 298 300 302 302 300 297 294 292 290 289 288 286 285 283 281 279 277 275 272 269 266 260 257 255 250 245 242 237 232 229 228 227 226 225 226 226 222 219 221 223 223 221 217 216 217 218 215 209 210 216 216 215 213 212 214 215 219 225 225 220 224 231 219 202 209 211 203 204 205 211 217 214 208 201 195 198 199 199
311 308 305 303 302 301 296 292 294 298 300 302 303 302 299 295 291 288 286 285 285 285 284 282 281 280 277 274 272 269 267 264 260 257 254 250 246 241 235 230 228 227 226 224 224 224 220 217 219 222 222 220 216 214 215 215 212 208 210 214 214 214 214 213 213 213 218 223 223 218 220 231 223 201 208 212 201 203 206 209 216 215 211 204 199 201 202 202
312 310 307 304 302 299 293 291 295 299 300 302 302 300 297 293 287 284 283 282 281 280 280 280 279 279 279 278 275 270 266 263 261 258 256 253 250 245 240 234 228 227 227 224 223 223 220 216 217 220 220 220 217 214 214 214 211 207 209 213 213 212 212 214 213 214 220 224 223 216 216 228 223 199 205 212 202 203 205 205 213 215 212 208 204 204 203 204
315 314 311 308 303 296 292 292 296 298 300 300 300 298 296 292 287 282 281 280 278 276 274 275 276 277 279 279 278 275 269 264 261 259 257 256 254 250 245 240 232 228 227 226 223 222 220 215 215 217 218 219 217 215 214 214 212 209 210 212 213 212 212 213 214 215 221 225 224 218 217 228 225 199 202 211 204 202 203 203 209 213 212 211 209 208 206 205
318 317 314 309 301 296 295 297 299 300 301 301 300 298 295 292 288 283 281 279 276 271 269 270 272 274 275 275 275 275 273 269 264 260 258 256 255 253 249 245 238 231 228 227 224 221 219 216 214 216 216 216 217 216 214 214 214 212 212 214 215 215 215 216 218 218 221 225 225 219 219 229 228 203 199 209 205 201 201 201 206 211 212 211 210 209 208 206
320 318 314 307 301 300 302 304 305 305 304 302 300 297 294 291 288 284 281 279 274 268 266 267 270 271 272 272 272 270 270 270 268 264 261 258 256 254 251 247 243 237 231 229 226 222 219 216 214 216 217 215 216 217 214 212 212 212 212 215 216 215 216 220 223 223 224 227 228 223 222 229 230 208 196 207 208 202 198 200 204 208 210 210 210 210 209 208
321 318 312 308 307 309 310 309 308 306 304 302 298 295 293 291 288 284 280 277 271 266 265 266 268 270 271 271 270 269 267 267 267 265 263 261 258 256 252 248 245 241 235 232 229 224 220 215 213 215 217 215 215 217 216 213 212 211 212 215 216 214 216 221 223 224 226 228 230 229 226 231 233 217 199 205 210 205 199 199 202 204 207 209 210 211 211 211
320 316 313 313 314 315 315 312 310 307 304 301 298 296 294 291 287 283 278 274 270 266 266 267 269 270 271 271 270 268 267 266 265 264 263 262 260 258 255 250 245 242 238 234 232 227 221 216 214 215 215 214 214 216 217 215 213 212 213 214 215 215 216 219 221 222 225 227 230 230 229 230 232 222 205 203 208 208 202 199 200 201 205 208 209 211 213 213
319 316 315 317 318 318 317 314 311 309 306 303 300 299 296 292 288 283 277 272 269 267 268 269 270 271 271 271 270 269 268 267 265 264 262 260 258 257 256 252 247 242 239 236 234 230 223 218 216 215 215 214 214 215 216 215 213 212 213 214 216 217 217 218 220 220 222 225 228 229 228 227 227 222 209 202 205 208 205 200 199 200 203 207 208 211 214 214
319 318 319 322 322 321 319 316 314 312 308 306 304 302 298 294 289 283 276 271 269 270 270 271 271 271 271 272 272 271 269 267 265 264 262 259 257 255 253 252 249 244 240 237 235 231 225 220 218 216 215 214 214 215 215 215 213 211 212 213 215 218 218 219 222 222 223 227 228 229 229 225 224 222 213 204 202 205 206 202 200 201 203 205 208 211 215 216
321 323 325 326 325 323 321 320 318 314 310 308 305 302 299 295 289 281 275 274 274 275 276 276 276 276 276 275 274 272 269 266 264 262 260 258 255 253 250 249 248 246 242 238 236 232 228 223 218 217 217 214 213 214 214 214 214 210 210 213 214 216 217 218 221 223 224 228 230 232 231 225 222 223 219 208 201 202 206 205 201 201 203 205 207 210 214 216
325 326 328 328 327 326 323 322 319 314 311 310 307 303 300 295 288 282 279 279 280 282 282 282 282 282 281 279 277 273 269 265 262 259 257 256 254 251 249 246 245 245 243 239 236 232 229 225 218 216 218 216 213 213 213 214 215 211 210 212 213 214 216 217 220 221 222 225 227 230 230 223 217 221 221 213 204 201 205 208 203 202 203 205 206 209 213 216
328 328 329 331 330 328 325 323 321 317 316 315 311 307 304 298 292 288 286 285 285 286 286 286 286 285 283 281 278 274 270 266 262 258 255 254 252 250 247 244 242 241 241 239 236 232 230 227 220 216 217 217 213 212 213 214 215 213 211 212 212 214 216 217 219 220 221 224 225 228 229 220 210 217 220 215 208 200 202 206 204 201 202 203 206 210 213 216
330 331 333 335 334 330 327 325 324 323 322 320 316 313 308 301 296 292 290 289 289 289 290 289 289 288 285 282 279 275 271 267 263 259 255 253 251 249 246 243 239 237 237 237 235 232 230 228 223 217 216 216 214 214 214 213 215 214 212 211 212 214 216 217 219 220 221 224 225 228 229 219 206 213 218 213 207 199 198 202 200 199 200 202 207 212 214 214
334 335 336 338 337 332 328 327 327 327 327 325 321 317 310 304 299 295 293 293 293 293 293 293 292 289 286 283 281 277 273 268 262 257 254 252 251 249 245 240 237 234 233 233 233 231 228 227 224 218 215 214 214 215 215 213 214 214 212 211 211 213 215 217 220 220 221 223 223 226 229 219 204 211 215 210 206 199 196 198 197 197 200 203 207 210 210 210
338 338 339 341 341 336 332 332 332 331 331 328 324 319 312 307 303 301 300 299 299 299 298 297 294 290 287 283 278 273 271 265 257 251 249 249 248 246 243 237 234 232 230 230 231 230 228 226 223 220 216 212 211 213 214 212 212 213 212 211 211 213 214 216 219 221 222 223 223 225 228 218 203 210 213 209 208 202 197 196 196 197 198 200 203 204 204 204
340 341 343 345 345 341 337 338 337 336 334 330 325 321 317 314 312 310 309 307 306 304 302 299 295 291 286 277 267 265 266 261 253 247 244 242 239 238 237 233 230 229 228 228 228 228 227 225 223 221 217 212 211 212 212 211 211 212 212 211 211 212 213 215 218 220 222 223 223 226 227 216 204 209 211 210 211 209 203 197 195 197 198 198 199 200 202 204
343 344 346 347 347 345 344 344 342 340 338 333 330 328 325 322 320 317 314 311 309 306 303 300 296 289 279 264 258 261 262 258 252 245 240 237 234 234 234 232 229 227 226 226 226 226 226 224 223 222 219 213 210 211 212 212 211 211 211 211 211 211 213 214 216 219 222 223 224 225 222 212 207 207 208 212 213 211 207 200 195 196 198 199 200 199 202 204
345 346 347 349 350 349 347 345 344 345 344 340 337 334 330 327 323 319 315 312 309 307 305 301 294 284 269 257 256 257 257 254 250 246 244 242 241 241 239 237 233 228 226 226 225 225 226 224 223 222 219 215 211 209 211 212 210 210 211 211 211 212 212 214 216 218 221 223 224 224 216 211 211 205 205 214 214 211 207 201 195 194 197 201 202 201 202 203
347 348 349 351 352 351 348 347 348 350 348 345 342 338 334 330 325 320 316 313 311 311 308 301 292 284 273 263 260 256 253 252 250 250 252 252 252 251 248 245 241 234 228 226 225 225 225 224 223 223 220 214 211 208 209 211 211 210 210 210 211 212 212 213 215 217 220 223 225 222 213 211 213 204 205 214 214 210 207 200 196 195 197 201 202 203 204 206
350 350 351 352 354 353 351 351 353 354 351 348 344 339 335 331 325 321 317 316 316 315 311 304 295 291 288 282 275 264 255 254 255 256 258 259 260 260 259 255 251 244 235 229 226 225 225 224 223 224 221 214 210 208 209 210 210 210 209 210 211 212 212 213 214 216 219 222 223 219 211 210 210 203 205 212 212 209 207 201 198 197 199 201 203 204 207 208
352 353 353 355 357 357 356 356 357 357 354 351 346 341 337 333 327 322 320 321 323 319 311 308 303 298 293 289 283 272 261 260 261 259 260 261 262 262 262 259 254 250 242 234 229 225 224 224 223 225 222 215 210 209 209 209 210 209 209 209 210 211 212 212 214 216 218 221 221 217 209 205 204 202 206 210 211 209 206 202 199 199 201 203 204 207 210 211
355 355 356 358 360 0 0 1 2 0 357 353 349 344 340 335 330 326 324 326 330 324 310 309 308 302 298 295 290 282 271 264 262 261 260 259 258 257 256 254 251 249 245 239 232 226 224 223 223 225 223 216 211 210 208 208 210 210 208 208 210 211 211 212 213 215 217 220 219 214 206 201 199 201 206 209 209 208 205 202 200 200 202 204 206 209 213 214
Height
5866 5866 5865 5865 5865 5865 5864 5864 5864 5864 5864 5864 5864 5863 5863 5864 5864 5864 5864 5865 5864 5865 5866 5866 5866 5866 5867 5868 5868 5868 5868 5868 5869 5870 5871 5871 5872 5873 5874 5875 5876 5878 5879 5880 5882 5883 5883 5884 5885 5886 5887 5888 5889 5891 5892 5894 5895 5896 5896 5897 5898 5899 5900 5900 5901 5902 5902 5903 5904 5904 5905 5905 5906 5906 5907 5907 5907 5908 5909 5909 5910 5910 5910 5910 5911 5911 5911 5912
5864 5864 5863 5863 5863 5862 5862 5862 5862 5862 5862 5861 5861 5861 5861 5861 5861 5862 5862 5863 5863 5863 5863 5864 5865 5864 5865 5866 5867 5867 5867 5866 5867 5869 5869 5869 5870 5871 5872 5873 5874 5875 5876 5878 5879 5880 5881 5882 5883 5884 5885 5886 5887 5889 5891 5893 5894 5895 5895 5896 5897 5898 5899 5900 5901 5901 5902 5902 5903 5904 5905 5905 5905 5906 5907 5907 5908 5908 5909 5909 5910 5910 5910 5910 5911 5911 5911 5911
5862 5861 5861 5860 5860 5860 5860 5859 5859 5859 5859 5859 5859 5859 5859 5859 5859 5859 5860 5860 5861 5861 5861 5862 5863 5863 5863 5863 5864 5865 5865 5865 5865 5867 5867 5867 5869 5869 5870 5871 5872 5873 5874 5875 5876 5877 5878 5879 5880 5881 5882 5883 5885 5887 5889 5891 5893 5894 5895 5895 5896 5897 5899 5900 5900 5901 5901 5902 5903 5904 5904 5905 5905 5905 5906 5906 5907 5908 5909 5909 5910 5910 5910 5910 5910 5910 5910 5911
5859 5859 5858 5858 5858 5857 5857 5857 5857 5856 5856 5856 5856 5856 5856 5856 5856 5857 5857 5858 5858 5859 5859 5859 5860 5860 5861 5861 5862 5862 5863 5863 5864 5865 5865 5865 5867 5867 5869 5869 5869 5871 5872 5874 5875 5876 5877 5877 5878 5880 5881 5882 5883 5885 5887 5889 5891 5893 5893 5894 5895 5896 5898 5899 5900 5900 5901 5902 5902 5902 5904 5905 5904 5905 5905 5906 5907 5908 5908 5909 5909 5910 5910 5910 5910 5910 5910 5910
5856 5856 5856 5855 5855 5855 5854 5854 5854 5853 5853 5853 5853 5853 5853 5853 5853 5854 5854 5855 5855 5856 5857 5857 5857 5858 5859 5859 5859 5860 5860 5861 5862 5862 5863 5863 5864 5865 5867 5867 5867 5869 5871 5872 5874 5875 5876 5877 5878 5879 5880 5881 5883 5885 5886 5887 5889 5891 5892 5893 5894 5895 5897 5898 5899 5900 5901 5902 5902 5902 5903 5904 5904 5905 5905 5905 5906 5907 5908 5908 5909 5909 5909 5909 5909 5910 5910 5910
5854 5854 5853 5853 5852 5852 5852 5852 5851 5851 5850 5850 5850 5850 5850 5850 5850 5851 5851 5852 5852 5853 5854 5854 5854 5855 5856 5856 5857 5857 5858 5859 5859 5859 5860 5861 5862 5863 5864 5865 5865 5867 5869 5870 5872 5873 5875 5876 5877 5878 5879 5880 5882 5884 5884 5885 5887 5889 5891 5892 5893 5894 5895 5897 5899 5899 5900 5901 5902 5903 5903 5903 5904 5904 5904 5904 5905 5906 5907 5908 5909 5909 5909 5909 5909 5909 5910 5910
5851 5851 5851 5850 5849 5849 5849 5849 5848 5848 5848 5848 5848 5847 5847 5847 5847 5848 5848 5849 5849 5850 5851 5851 5852 5852 5853 5854 5854 5854 5855 5856 5856 5856 5858 5859 5860 5861 5862 5862 5863 5865 5867 5868 5870 5871 5873 5875 5876 5877 5877 5879 5881 5882 5883 5883 5885 5887 5888 5890 5891 5892 5894 5896 5897 5898 5899 5901 5902 5902 5902 5902 5903 5904 5903 5904 5905 5905 5906 5907 5908 5909 5909 5909 5909 5909 5910 5910
5850 5849 5849 5848 5847 5847 5846 5846 5846 5845 5845 5845 5845 5845 5844 5844 5844 5845 5845 5846 5846 5847 5847 5848 5849 5849 5850 5851 5852 5851 5852 5853 5853 5853 5856 5857 5858 5859 5859 5860 5861 5862 5864 5865 5867 5868 5870 5872 5873 5874 5875 5877 5878 5880 5880 5881 5883 5885 5886 5888 5889 5891 5892 5894 5896 5897 5899 5900 5900 5900 5901 5901 5903 5903 5903 5904 5904 5905 5906 5907 5907 5908 5909 5909 5909 5909 5909 5909
5848 5847 5846 5846 5845 5844 5844 5844 5843 5843 5843 5843 5843 5842 5842 5842 5842 5842 5842 5843 5843 5844 5844 5845 5845 5846 5847 5847 5848 5848 5848 5850 5851 5851 5853 5855 5856 5856 5857 5858 5858 5860 5861 5863 5864 5866 5867 5869 5870 5871 5872 5873 5874 5876 5877 5879 5881 5882 5882 5885 5888 5889 5891 5892 5894 5896 5898 5899 5899 5899 5900 5901 5902 5903 5904 5904 5904 5905 5905 5906 5907 5908 5909 5909 5909 5909 5909 5909
5846 5845 5844 5843 5843 5842 5841 5841 5840 5840 5840 5840 5840 5840 5839 5839 5839 5839 5839 5840 5841 5841 5841 5841 5842 5842 5843 5844 5844 5845 5845 5847 5848 5849 5851 5853 5853 5854 5854 5855 5856 5857 5859 5860 5862 5864 5865 5865 5866 5867 5867 5869 5870 5873 5875 5877 5879 5879 5879 5883 5886 5887 5889 5891 5893 5895 5897 5898 5898 5899 5900 5901 5902 5903 5904 5904 5904 5904 5905 5906 5906 5907 5908 5909 5909 5909 5909 5909
5843 5843 5842 5841 5840 5839 5839 5838 5838 5837 5837 5837 5837 5836 5836 5836 5836 5836 5836 5837 5838 5838 5838 5838 5838 5839 5839 5840 5841 5842 5843 5844 5845 5846 5848 5850 5851 5851 5851 5852 5853 5854 5856 5858 5859 5860 5860 5861 5862 5863 5865 5867 5868 5870 5873 5875 5876 5876 5877 5880 5883 5885 5888 5890 5892 5894 5896 5896 5897 5898 5899 5901 5902 5903 5904 5904 5904 5904 5904 5905 5906 5906 5907 5908 5909 5909 5909 5909
5840 5840 5839 5838 5837 5836 5836 5835 5834 5834 5833 5834 5833 5833 5833 5832 5832 5832 5833 5834 5835 5835 5835 5835 5835 5835 5836 5837 5838 5839 5839 5840 5841 5843 5844 5846 5848 5848 5849 5849 5851 5852 5853 5855 5855 5856 5857 5859 5860 5861 5863 5865 5866 5868 5870 5871 5872 5873 5875 5877 5880 5882 5886 5889 5891 5892 5894 5895 5896 5897 5899 5901 5901 5902 5904 5903 5904 5904 5904 5905 5905 5906 5907 5908 5908 5908 5908 5908
5837 5836 5835 5834 5833 5833 5832 5831 5830 5830 5829 5830 5829 5828 5828 5828 5828 5828 5829 5830 5831 5831 5832 5833 5832 5832 5832 5833 5835 5836 5835 5836 5838 5840 5841 5843 5844 5845 5846 5846 5848 5849 5851 5852 5853 5853 5855 5857 5858 5858 5860 5862 5863 5865 5868 5868 5868 5870 5873 5875 5877 5880 5884 5887 5888 5890 5892 5893 5894 5896 5899 5899 5899 5901 5903 5903 5903 5903 5903 5904 5905 5905 5906 5907 5908 5908 5908 5908
5834 5833 5832 5831 5830 5829 5828 5827 5827 5826 5826 5825 5825 5824 5824 5823 5823 5824 5825 5826 5827 5827 5828 5829 5829 5829 5829 5830 5831 5831 5832 5833 5835 5836 5837 5839 5840 5842 5842 5843 5845 5846 5847 5849 5850 5851 5852 5854 5855 5856 5858 5860 5861 5863 5866 5866 5866 5868 5870 5872 5874 5877 5882 5885 5886 5888 5890 5891 5893 5895 5897 5898 5898 5900 5902 5902 5902 5903 5903 5903 5904 5905 5906 5907 5908 5908 5908 5908
5830 5829 5829 5828 5827 5826 5825 5824 5823 5822 5822 5821 5820 5820 5819 5818 5818 5819 5820 5821 5822 5822 5824 5825 5825 5825 5826 5827 5827 5827 5829 5830 5831 5832 5833 5835 5836 5837 5839 5840 5841 5842 5844 5845 5846 5848 5849 5851 5853 5855 5857 5858 5859 5861 5863 5864 5864 5865 5866 5870 5873 5876 5881 5883 5884 5887 5888 5889 5891 5893 5895 5896 5897 5899 5901 5902 5902 5902 5903 5903 5903 5904 5905 5906 5907 5908 5908 5908
5826 5825 5824 5824 5823 5822 5821 5820 5819 5818 5817 5817 5816 5815 5815 5814 5813 5814 5815 5816 5817 5818 5819 5819 5820 5821 5822 5823 5824 5823 5825 5826 5826 5827 5829 5830 5831 5833 5835 5836 5837 5839 5840 5841 5843 5844 5845 5847 5850 5852 5854 5855 5857 5859 5861 5861 5862 5862 5864 5868 5872 5875 5879 5880 5882 5885 5886 5887 5889 5891 5894 5895 5896 5898 5900 5901 5901 5902 5903 5902 5903 5904 5905 5906 5907 5907 5908 5908
5821 5821 5820 5819 5818 5818 5816 5816 5815 5813 5813 5812 5811 5811 5810 5809 5808 5808 5810 5811 5811 5812 5813 5814 5814 5816 5817 5818 5819 5819 5820 5822 5822 5823 5824 5826 5827 5829 5830 5831 5833 5834 5836 5838 5839 5841 5842 5844 5847 5849 5850 5852 5854 5856 5858 5859 5859 5860 5864 5868 5871 5873 5876 5878 5880 5883 5884 5885 5887 5890 5892 5893 5894 5896 5898 5900 5901 5902 5902 5902 5902 5903 5904 5905 5906 5907 5907 5907
5816 5815 5815 5814 5813 5812 5811 5810 5809 5808 5807 5806 5805 5805 5804 5803 5802 5802 5804 5805 5806 5807 5807 5808 5809 5810 5811 5813 5814 5815 5815 5816 5817 5818 5820 5821 5822 5824 5825 5826 5828 5829 5831 5833 5835 5837 5839 5841 5843 5845 5846 5849 5852 5854 5856 5859 5860 5862 5865 5868 5870 5871 5874 5877 5878 5880 5881 5883 5885 5888 5890 5891 5892 5894 5896 5898 5899 5900 5901 5901 5901 5902 5903 5904 5905 5906 5906 5907
5811 5810 5809 5808 5807 5806 5805 5804 5803 5803 5802 5800 5799 5799 5798 5797 5796 5795 5797 5799 5800 5801 5801 5802 5803 5804 5805 5807 5808 5809 5809 5810 5812 5814 5815 5817 5817 5819 5820 5821 5823 5824 5826 5828 5831 5833 5835 5838 5839 5841 5846 5850 5852 5854 5856 5859 5861 5863 5864 5866 5868 5869 5871 5874 5876 5877 5879 5880 5882 5886 5889 5889 5890 5892 5894 5896 5897 5899 5899 5900 5900 5901 5902 5903 5904 5905 5905 5906
5806 5804 5803 5802 5800 5799 5798 5797 5796 5796 5795 5794 5793 5792 5791 5791 5789 5788 5790 5792 5793 5794 5795 5796 5796 5797 5799 5800 5802 5803 5803 5804 5806 5808 5811 5812 5812 5814 5815 5816 5817 5819 5821 5825 5827 5829 5831 5833 5835 5842 5848 5850 5850 5851 5853 5855 5858 5860 5861 5862 5864 5865 5868 5871 5873 5874 5875 5876 5879 5883 5886 5886 5887 5890 5892 5893 5894 5896 5898 5900 5900 5900 5900 5902 5903 5904 5905 5906
5801 5799 5797 5796 5794 5793 5791 5790 5790 5789 5789 5787 5786 5784 5784 5784 5783 5781 5781 5784 5786 5787 5787 5788 5789 5791 5792 5793 5794 5796 5797 5798 5799 5802 5805 5807 5807 5808 5810 5811 5813 5815 5818 5821 5822 5823 5825 5827 5835 5843 5845 5844 5845 5846 5848 5851 5854 5855 5857 5859 5861 5862 5865 5867 5868 5871 5872 5873 5876 5879 5882 5884 5886 5887 5889 5890 5892 5895 5897 5899 5899 5898 5899 5900 5901 5902 5904 5905
5795 5793 5791 5790 5788 5787 5786 5784 5783 5783 5782 5781 5779 5778 5777 5777 5777 5776 5775 5774 5777 5779 5779 5780 5782 5783 5785 5786 5787 5789 5790 5791 5792 5795 5798 5801 5802 5802 5804 5807 5809 5811 5813 5814 5815 5817 5819 5825 5836 5840 5839 5839 5840 5842 5844 5847 5849 5851 5852 5855 5858 5860 5863 5865 5866 5868 5869 5869 5872 5875 5877 5881 5883 5884 5885 5887 5890 5893 5895 5896 5896 5896 5897 5899 5900 5902 5903 5904
5790 5788 5786 5785 5783 5782 5780 5778 5777 5777 5776 5775 5773 5771 5770 5770 5770 5770 5769 5767 5768 5770 5771 5771 5773 5775 5777 5778 5779 5782 5783 5784 5785 5787 5790 5794 5795 5796 5798 5801 5804 5806 5807 5808 5810 5813 5816 5825 5835 5836 5833 5834 5836 5837 5840 5842 5845 5846 5848 5851 5855 5858 5861 5862 5862 5863 5864 5866 5869 5871 5873 5877 5878 5879 5882 5885 5888 5889 5891 5892 5892 5893 5894 5896 5897 5899 5901 5902
5785 5783 5780 5779 5778 5776 5774 5772 5771 5770 5770 5769 5767 5765 5764 5764 5764 5763 5763 5762 5761 5762 5763 5763 5764 5766 5768 5769 5772 5773 5774 5776 5778 5779 5783 5786 5788 5790 5793 5795 5798 5799 5801 5803 5805 5808 5813 5823 5830 5828 5827 5830 5831 5833 5836 5838 5841 5842 5844 5848 5852 5856 5859 5860 5859 5859 5861 5864 5866 5867 5868 5871 5873 5876 5880 5883 5885 5886 5889 5890 5890 5891 5892 5893 5894 5896 5898 5900
5780 5777 5775 5773 5772 5771 5769 5767 5765 5764 5764 5763 5762 5760 5760 5759 5758 5758 5758 5757 5756 5756 5757 5756 5757 5758 5759 5762 5765 5765 5766 5768 5770 5771 5774 5777 5780 5783 5785 5788 5791 5793 5796 5798 5800 5803 5808 5817 5823 5820 5821 5825 5827 5829 5832 5835 5838 5839 5842 5846 5850 5853 5855 5856 5856 5856 5858 5860 5863 5864 5863 5866 5870 5873 5877 5879 5881 5884 5887 5889 5890 5891 5891 5892 5894 5896 5898 5899
5774 5772 5770 5768 5767 5765 5764 5762 5761 5759 5758 5757 5756 5756 5755 5754 5754 5753 5753 5753 5752 5751 5752 5751 5752 5752 5752 5755 5757 5756 5758 5760 5761 5764 5766 5769 5772 5775 5778 5781 5784 5786 5789 5792 5793 5796 5803 5811 5816 5814 5815 5820 5821 5823 5827 5830 5833 5836 5841 5845 5847 5848 5850 5852 5854 5853 5853 5855 5859 5860 5859 5862 5866 5869 5873 5875 5878 5882 5884 5887 5889 5890 5890 5892 5894 5896 5897 5898
5769 5767 5766 5764 5762 5761 5760 5758 5757 5755 5754 5753 5752 5751 5750 5750 5749 5748 5748 5748 5748 5748 5747 5747 5748 5747 5747 5750 5750 5750 5751 5751 5754 5756 5758 5761 5765 5767 5771 5773 5776 5779 5782 5785 5785 5790 5799 5805 5808 5808 5810 5814 5817 5820 5824 5828 5830 5835 5840 5841 5840 5842 5845 5848 5850 5849 5849 5852 5855 5855 5855 5858 5861 5865 5869 5871 5874 5878 5880 5884 5887 5889 5890 5892 5894 5895 5896 5897
5765 5763 5761 5760 5758 5756 5756 5755 5753 5752 5751 5750 5749 5748 5746 5746 5745 5744 5743 5743 5744 5744 5743 5743 5743 5742 5743 5745 5745 5745 5745 5745 5747 5749 5750 5754 5756 5760 5763 5765 5768 5772 5774 5777 5779 5785 5794 5800 5802 5803 5805 5810 5815 5819 5823 5825 5827 5832 5836 5834 5834 5838 5840 5843 5844 5844 5847 5848 5848 5850 5851 5852 5856 5862 5866 5867 5870 5873 5876 5881 5885 5888 5890 5891 5892 5893 5894 5896
5761 5760 5758 5756 5754 5752 5751 5751 5750 5749 5747 5746 5746 5744 5743 5742 5740 5740 5739 5738 5738 5739 5738 5738 5738 5739 5739 5740 5740 5740 5740 5740 5741 5741 5744 5747 5748 5752 5755 5757 5760 5763 5766 5770 5773 5779 5788 5793 5795 5797 5800 5805 5812 5816 5818 5819 5821 5828 5830 5827 5830 5833 5834 5837 5837 5840 5843 5839 5839 5846 5848 5847 5853 5859 5861 5861 5866 5871 5875 5880 5883 5886 5888 5890 5891 5892 5893 5894
5757 5756 5754 5752 5750 5748 5746 5746 5746 5745 5743 5742 5742 5740 5739 5738 5736 5735 5735 5734 5733 5734 5734 5734 5734 5734 5735 5734 5734 5734 5734 5736 5736 5736 5738 5740 5741 5744 5747 5749 5752 5755 5759 5762 5765 5771 5780 5786 5788 5791 5795 5800 5805 5809 5811 5812 5817 5823 5823 5821 5824 5826 5828 5830 5831 5835 5835 5828 5832 5843 5845 5844 5848 5854 5855 5858 5866 5871 5873 5877 5880 5884 5886 5888 5890 5890 5891 5892
5753 5751 5750 5748 5746 5744 5743 5741 5741 5740 5739 5738 5737 5735 5734 5733 5732 5731 5730 5730 5729 5729 5729 5729 5729 5730 5730 5729 5728 5728 5729 5730 5731 5732 5732 5733 5735 5737 5739 5742 5745 5748 5751 5754 5759 5764 5772 5779 5782 5785 5789 5792 5797 5801 5803 5806 5811 5815 5815 5815 5818 5820 5822 5824 5825 5827 5823 5820 5829 5840 5843 5840 5842 5849 5853 5857 5865 5868 5869 5874 5878 5881 5884 5886 5888 5889 5890 5891
5749 5747 5745 5744 5742 5741 5739 5738 5736 5735 5734 5732 5731 5730 5729 5728 5727 5726 5726 5725 5725 5725 5725 5724 5724 5725 5725 5724 5723 5723 5723 5724 5725 5726 5727 5727 5729 5731 5733 5735 5739 5742 5743 5748 5753 5757 5764 5772 5776 5778 5781 5785 5790 5794 5797 5800 5804 5807 5808 5808 5810 5813 5815 5817 5819 5820 5817 5818 5827 5835 5838 5833 5835 5847 5852 5854 5861 5863 5866 5872 5875 5877 5881 5883 5886 5887 5888 5889
5745 5743 5741 5740 5738 5737 5736 5734 5733 5731 5730 5728 5726 5725 5724 5723 5722 5722 5721 5720 5719 5720 5720 5719 5719 5720 5720 5719 5719 5718 5718 5719 5720 5720 5721 5722 5723 5725 5728 5730 5733 5736 5738 5742 5746 5750 5757 5764 5766 5769 5772 5777 5782 5787 5791 5794 5798 5800 5801 5802 5804 5806 5809 5811 5813 5815 5815 5818 5824 5832 5832 5826 5831 5845 5849 5851 5858 5861 5864 5868 5871 5874 5877 5880 5883 5884 5886 5887
5741 5739 5737 5736 5735 5733 5731 5730 5728 5727 5725 5723 5721 5720 5719 5718 5717 5717 5716 5715 5714 5715 5714 5714 5714 5714 5715 5715 5714 5714 5714 5714 5715 5715 5716 5716 5717 5719 5722 5725 5727 5730 5732 5735 5738 5742 5748 5754 5759 5762 5765 5770 5776 5781 5786 5790 5793 5796 5798 5800 5801 5804 5808 5810 5812 5814 5814 5816 5820 5827 5826 5820 5828 5843 5847 5851 5856 5858 5861 5865 5868 5871 5874 5877 5879 5880 5883 5885
5737 5735 5733 5732 5731 5729 5727 5725 5724 5722 5720 5718 5716 5714 5713 5712 5712 5711 5710 5710 5710 5709 5709 5709 5709 5709 5709 5710 5710 5710 5710 5710 5710 5711 5710 5711 5712 5713 5716 5719 5721 5724 5727 5728 5730 5735 5740 5746 5753 5756 5759 5765 5771 5775 5779 5782 5786 5791 5794 5795 5797 5803 5808 5810 5811 5813 5815 5815 5816 5820 5819 5817 5827 5842 5848 5850 5852 5855 5859 5862 5865 5868 5871 5873 5875 5877 5880 5883
5733 5731 5730 5728 5726 5725 5723 5721 5720 5718 5715 5714 5711 5709 5708 5707 5706 5706 5705 5705 5704 5704 5704 5703 5703 5703 5703 5704 5705 5705 5705 5705 5705 5706 5705 5706 5706 5707 5710 5713 5715 5718 5720 5721 5724 5728 5733 5739 5746 5749 5753 5759 5764 5768 5772 5776 5780 5785 5787 5789 5795 5802 5805 5804 5806 5809 5811 5812 5811 5813 5817 5820 5829 5841 5846 5847 5849 5853 5857 5859 5862 5866 5868 5870 5872 5875 5879 5881
5730 5728 5726 5724 5722 5720 5719 5717 5715 5713 5710 5708 5706 5705 5704 5702 5701 5700 5699 5699 5699 5699 5699 5698 5698 5697 5697 5698 5699 5699 5699 5699 5699 5699 5700 5701 5701 5701 5704 5706 5709 5712 5713 5716 5718 5721 5726 5733 5738 5742 5747 5752 5757 5762 5767 5771 5776 5780 5783 5789 5794 5796 5796 5797 5800 5803 5805 5806 5805 5809 5816 5821 5828 5836 5842 5845 5847 5850 5854 5856 5859 5863 5865 5867 5870 5874 5877 5879
5727 5725 5723 5721 5719 5717 5714 5712 5710 5707 5705 5703 5701 5700 5699 5697 5696 5695 5694 5694 5694 5694 5693 5693 5692 5692 5692 5692 5693 5694 5694 5693 5693 5693 5693 5694 5695 5696 5698 5699 5702 5704 5707 5710 5712 5714 5720 5726 5730 5735 5740 5746 5751 5755 5760 5765 5770 5776 5781 5785 5787 5786 5789 5792 5794 5797 5800 5800 5800 5804 5810 5817 5824 5831 5838 5843 5846 5849 5852 5854 5857 5860 5862 5865 5869 5872 5875 5877
5724 5722 5720 5718 5715 5713 5710 5707 5705 5702 5700 5698 5696 5695 5694 5693 5691 5691 5690 5689 5689 5689 5688 5688 5687 5686 5686 5686 5686 5687 5687 5687 5687 5686 5686 5686 5687 5690 5691 5692 5694 5697 5700 5703 5705 5709 5713 5717 5723 5729 5733 5739 5744 5747 5753 5759 5765 5771 5776 5777 5778 5780 5786 5789 5790 5794 5797 5796 5798 5802 5806 5813 5822 5829 5836 5841 5844 5847 5849 5852 5855 5857 5860 5863 5867 5870 5873 5874
5721 5719 5716 5714 5711 5709 5705 5703 5700 5697 5695 5693 5692 5690 5689 5688 5687 5686 5685 5685 5684 5683 5683 5682 5681 5680 5679 5678 5678 5679 5679 5679 5679 5679 5679 5679 5680 5682 5684 5685 5687 5689 5692 5696 5700 5703 5706 5709 5716 5722 5726 5731 5736 5741 5748 5754 5758 5763 5766 5767 5771 5775 5780 5783 5785 5789 5793 5793 5796 5799 5802 5811 5821 5826 5832 5837 5841 5844 5846 5849 5853 5855 5858 5862 5865 5868 5870 5872
5718 5716 5713 5710 5708 5705 5702 5699 5696 5693 5691 5690 5688 5686 5685 5684 5682 5682 5681 5680 5679 5678 5676 5675 5674 5672 5671 5669 5669 5670 5670 5670 5670 5671 5671 5670 5672 5673 5675 5678 5681 5682 5685 5689 5693 5697 5699 5702 5709 5715 5719 5723 5730 5737 5743 5747 5750 5754 5758 5760 5766 5771 5775 5778 5779 5782 5786 5788 5791 5794 5797 5808 5819 5823 5826 5832 5837 5841 5844 5847 5850 5853 5856 5859 5862 5865 5868 5870
5715 5713 5710 5707 5704 5701 5698 5695 5692 5689 5687 5686 5684 5682 5681 5679 5678 5677 5676 5675 5673 5671 5670 5668 5667 5665 5663 5661 5660 5660 5661 5661 5661 5662 5662 5662 5663 5665 5667 5671 5673 5676 5678 5681 5685 5690 5693 5696 5701 5708 5713 5718 5726 5732 5735 5740 5743 5747 5752 5756 5762 5766 5768 5772 5775 5778 5782 5784 5787 5790 5792 5803 5816 5819 5822 5828 5833 5838 5841 5843 5847 5850 5853 5857 5859 5862 5864 5867
5713 5709 5707 5704 5701 5697 5694 5691 5689 5686 5684 5682 5680 5679 5677 5676 5674 5673 5671 5669 5667 5665 5663 5661 5659 5657 5655 5653 5651 5650 5651 5651 5651 5652 5652 5653 5654 5656 5659 5662 5665 5668 5671 5673 5677 5682 5687 5690 5695 5702 5708 5714 5721 5725 5728 5733 5737 5741 5746 5751 5756 5760 5762 5767 5771 5774 5777 5779 5784 5786 5787 5801 5815 5817 5819 5825 5829 5833 5836 5839 5843 5847 5850 5854 5856 5859 5861 5864
5710 5706 5703 5701 5698 5694 5691 5688 5686 5683 5681 5679 5677 5675 5674 5672 5670 5668 5666 5664 5662 5659 5656 5654 5652 5649 5647 5644 5642 5641 5642 5643 5643 5644 5645 5645 5646 5648 5650 5654 5657 5661 5664 5666 5669 5674 5680 5684 5688 5695 5701 5708 5713 5716 5719 5725 5730 5734 5739 5745 5750 5753 5758 5764 5767 5769 5772 5774 5781 5783 5784 5799 5814 5814 5817 5822 5824 5828 5832 5835 5839 5842 5846 5849 5852 5854 5857 5860
5707 5704 5701 5698 5695 5692 5689 5686 5683 5680 5678 5676 5674 5672 5670 5668 5667 5664 5662 5659 5656 5654 5650 5647 5644 5642 5639 5638 5636 5636 5636 5637 5638 5639 5639 5640 5641 5642 5644 5647 5650 5653 5656 5659 5662 5667 5672 5677 5681 5687 5692 5698 5703 5706 5710 5716 5722 5728 5733 5739 5744 5748 5754 5759 5761 5764 5767 5771 5778 5779 5782 5799 5811 5811 5814 5818 5819 5823 5827 5831 5835 5838 5842 5845 5848 5851 5853 5856
5704 5701 5698 5696 5693 5690 5686 5684 5681 5678 5675 5673 5671 5669 5667 5664 5662 5659 5657 5654 5651 5648 5644 5640 5637 5635 5633 5632 5632 5632 5632 5633 5634 5635 5635 5636 5637 5639 5640 5642 5644 5647 5649 5652 5656 5660 5664 5669 5674 5678 5684 5691 5696 5700 5704 5711 5717 5722 5728 5733 5738 5743 5748 5752 5755 5759 5763 5768 5774 5776 5783 5799 5808 5808 5811 5813 5814 5817 5821 5825 5829 5833 5836 5840 5843 5846 5849 5851
5702 5699 5696 5693 5690 5687 5684 5681 5678 5676 5673 5670 5668 5665 5663 5660 5657 5654 5651 5648 5645 5641 5638 5634 5631 5629 5628 5628 5628 5629 5629 5630 5630 5631 5632 5632 5634 5635 5636 5638 5639 5641 5643 5646 5649 5653 5656 5662 5667 5671 5677 5685 5690 5695 5700 5705 5711 5717 5722 5728 5733 5738 5742 5746 5751 5754 5759 5765 5768 5772 5785 5798 5802 5803 5807 5807 5808 5812 5815 5819 5823 5826 5830 5833 5836 5839 5842 5845
5700 5697 5695 5692 5689 5685 5682 5679 5676 5673 5670 5667 5665 5662 5659 5656 5652 5649 5646 5643 5639 5636 5632 5629 5626 5625 5624 5625 5625 5626 5626 5627 5627 5628 5628 5629 5630 5631 5632 5634 5635 5636 5638 5640 5643 5646 5649 5655 5661 5664 5670 5677 5684 5689 5694 5700 5706 5711 5717 5723 5728 5732 5737 5742 5747 5751 5756 5760 5762 5770 5786 5795 5796 5800 5803 5803 5805 5808 5811 5815 5818 5822 5825 5828 5831 5834 5837 5839
5699 5696 5693 5690 5687 5684 5681 5678 5674 5671 5668 5665 5662 5659 5656 5653 5649 5646 5642 5638 5634 5631 5627 5624 5623 5622 5622 5622 5623 5623 5623 5623 5624 5625 5625 5625 5626 5627 5628 5629 5630 5632 5634 5635 5637 5640 5643 5649 5654 5656 5662 5670 5677 5683 5689 5694 5700 5706 5712 5718 5723 5727 5732 5737 5743 5747 5751 5753 5757 5771 5785 5790 5792 5798 5800 5799 5802 5805 5808 5811 5814 5817 5820 5823 5826 5829 5832 5835
5697 5694 5692 5689 5686 5682 5679 5676 5672 5669 5666 5663 5660 5657 5653 5650 5646 5642 5638 5634 5630 5626 5624 5622 5621 5620 5620 5620 5620 5620 5620 5620 5621 5621 5621 5622 5623 5623 5624 5625 5626 5627 5629 5631 5633 5635 5639 5644 5647 5650 5656 5664 5672 5678 5683 5688 5694 5701 5707 5713 5717 5722 5728 5733 5738 5742 5745 5748 5756 5770 5781 5785 5789 5794 5795 5795 5799 5802 5805 5808 5810 5813 5816 5819 5822 5825 5828 5831
5696 5693 5690 5687 5684 5681 5678 5674 5671 5667 5664 5662 5658 5655 5651 5647 5643 5638 5634 5630 5627 5623 5621 5620 5619 5618 5618 5617 5617 5617 5617 5617 5617 5618 5618 5618 5619 5619 5619 5621 5622 5623 5625 5627 5628 5631 5634 5638 5642 5644 5650 5659 5667 5672 5676 5683 5689 5695 5701 5707 5712 5717 5723 5729 5733 5737 5741 5745 5754 5766 5776 5781 5785 5788 5790 5793 5796 5799 5802 5805 5808 5810 5813 5816 5819 5822 5824 5827
5696 5693 5690 5686 5683 5680 5677 5673 5669 5666 5663 5660 5657 5653 5649 5645 5640 5635 5630 5626 5624 5622 5620 5619 5618 5617 5615 5615 5615 5614 5614 5614 5614 5614 5614 5614 5614 5614 5615 5616 5617 5618 5620 5621 5623 5626 5629 5633 5637 5639 5644 5654 5661 5666 5671 5678 5683 5688 5696 5703 5708 5713 5719 5724 5728 5732 5737 5742 5750 5762 5772 5778 5782 5784 5786 5789 5792 5796 5799 5803 5806 5809 5811 5814 5817 5819 5822 5825